User: anonymous   Login
Location: Moscow
(38.8570°N, 84.2291°W)
Time: 10:59:10
(UTC+00:00)
Language:

RS-15 - Orbit

View from above orbital plane
View from above orbital plane
View from above satellite
View from above satellite

Ground track
Ground track

The orbit is defined by the following mean orbital elements,

1 23439U          26073.75080516 +.00000000 +00000-0 -20323-4 0 00009
2 23439  64.8133  95.9468 0152852  21.0791 339.6344 11.27583888    05
Epoch (UTC): 14 March 2026 18:01:09
Eccentricity: 0.0152852
inclination: 64.8133°
perigee height: 1894 km
apogee height: 2151 km
right ascension of ascending node: 95.9468°
argument of perigee: 21.0791°
revolutions per day: 11.27583888
mean anomaly at epoch: 339.6344°

The dashed part of the orbit path shows where the satellite is in the earth's shadow,  

DLR